This is the latest recevied weather packets stored in our database for station/object KD4UFD. If no packets are shown the sender has not sent any weather packets the latest 10 day(s).
| Time | Temp. | Humidity | Pressure | Rain* | Wind** | Luminosity | Snow |
|---|---|---|---|---|---|---|---|
| 1778027247 | 22.22° C | 47% | 1010.6 hPa | 0 mm | - | 1 W/m² | - |
| 1778026944 | 22.22° C | 48% | 1010.4 hPa | 0 mm | - | 3 W/m² | - |
| 1778026640 | 22.22° C | 45% | 1010.5 hPa | 0 mm | - | 4 W/m² | - |
| 1778026338 | 22.78° C | 46% | 1010.5 hPa | 0 mm | - | 7 W/m² | - |
| 1778026034 | 22.22° C | 48% | 1010.6 hPa | 0 mm | - | 8 W/m² | - |
| 1778025732 | 22.78° C | 48% | 1010.6 hPa | 0 mm | - | 12 W/m² | - |
| 1778025429 | 22.78° C | 49% | 1010.6 hPa | 0 mm | - | 17 W/m² | - |
| 1778025127 | 22.78° C | 50% | 1010.6 hPa | 0 mm | - | 23 W/m² | - |
| 1778024823 | 22.78° C | 49% | 1010.6 hPa | 0 mm | - | 30 W/m² | - |
| 1778024521 | 23.33° C | 50% | 1010.4 hPa | 0 mm | - | 30 W/m² | - |
| 1778024217 | 23.33° C | 50% | 1010.2 hPa | 0 mm | - | 34 W/m² | - |
| 1778023915 | 23.33° C | 48% | 1010 hPa | 0 mm | - | 47 W/m² | - |
| 1778023612 | 23.89° C | 49% | 1010 hPa | 0 mm | - | 69 W/m² | - |
| 1778023310 | 23.89° C | 49% | 1010.3 hPa | 0 mm | - | 120 W/m² | - |
| 1778023006 | 23.89° C | 48% | 1010 hPa | 0 mm | - | 125 W/m² | - |
| 1778022705 | 23.33° C | 50% | 1010.3 hPa | 0 mm | - | 126 W/m² | - |
| 1778022403 | 23.33° C | 51% | 1009.9 hPa | 0 mm | - | 75 W/m² | - |
| 1778022099 | 23.89° C | 50% | 1010 hPa | 0 mm | - | 84 W/m² | - |
| 1778021795 | 23.89° C | 51% | 1010.3 hPa | 0 mm | - | 94 W/m² | - |
| 1778021492 | 23.89° C | 52% | 1010.3 hPa | 0 mm | - | 115 W/m² | - |
| 1778021188 | 23.89° C | 51% | 1010.3 hPa | 0 mm | - | 128 W/m² | - |
| 1778020886 | 24.44° C | 51% | 1010.3 hPa | 0 mm | - | 157 W/m² | - |
| 1778020583 | 24.44° C | 51% | 1010.4 hPa | 0 mm | - | 216 W/m² | - |
| 1778020279 | 23.89° C | 53% | 1010.4 hPa | 0 mm | - | 246 W/m² | - |
| 1778019975 | 23.89° C | 51% | 1010.6 hPa | 0 mm | - | 147 W/m² | - |
* Rain latest hour (hover to see other rain measurements)
** Current wind speed in m/s (hover to see current wind gust speed)